Location: Brabourne
(51.1333°N, 1.0000°E)
Time: 11:33:53
(UTC+00:00)

ADEOS Rocket - Pass Details

Date: 26 October 2021
Orbit: 858 x 1307 km, 98.8° (Epoch: 26 November)

Event Time Altitude Azimuth Distance (km) Brightness Sun altitude
Exits shadow 01:55:06 12° 337° (NNW) 2,943 5.6 -42.6°
Drops below altitude 10° 01:55:34 10° 338° (NNW) 3,101 5.8 -42.6°
Sets 01:58:10 0° 343° (NNW) 4,008 6.5 -42.3°
